Regional Weather Roundup
Issued by NWS

Home | Current Version | Previous Version | Graphics & Text | Print | Product List | Glossary Off
Versions: 1 2 3 4 5 6 7 8 9 10 11 12 13 14 15 16 17 18 19 20 21 22 23 24 25 26 27 28 29 30 31 32 33 34 35 36 37 38 39 40 41 42 43 44 45 46 47 48 49 50

000
ASUS43 KDMX 232206
RWRIA

WEATHER ROUNDUP FOR IOWA
NATIONAL WEATHER SERVICE DES MOINES IA
500 PM CDT SAT SEP 23 2017

NOTE: "FAIR" INDICATES FEW OR NO CLOUDS BELOW 12,000 FEET WITH NO
SIGNIFICANT WEATHER AND/OR OBSTRUCTIONS TO VISIBILITY.

* - THESE STATIONS ARE NOT NWS STATIONS...THUS NOT UNDER NWS
QUALITY CONTROL.  THEY ALSO DO NOT REPORT WEATHER SUCH
AS PRECIPITATION OR FOG.

IAZ001>003-012>014-020>022-031>034-043>046-232300-
   NORTHWEST IOWA

CITY           SKY/WX    TMP DP  RH WIND       PRES   REMARKS
CARROLL *      MOSUNNY   90  63  40 S16       29.91F HX  90
CHEROKEE *     MOSUNNY   85  66  51 S13       29.89S HX  87
DENISON *      MOSUNNY   88  66  48 S13G18    29.91F HX  90
LE MARS *      PTSUNNY   86  68  54 S15G23    29.86S HX  89
ORANGE CITY *  MOSUNNY   88  68  51 S14G20    29.88F HX  91
SHELDON *      MOSUNNY   86  66  51 S15G22    29.87F HX  88
SIOUX CITY     MOSUNNY   87  68  52 S16G24    29.84F HX  90
SPENCER        SUNNY     88  65  46 S16       29.90F HX  90
STORM LAKE *   SUNNY     86  64  48 S14G22    29.91F HX  87
$$

IAZ055>058-069>071-079>083-090>094-232300-
   SOUTHWEST IOWA

CITY           SKY/WX    TMP DP  RH WIND       PRES   REMARKS
ATLANTIC *     SUNNY     90  63  40 S15G22    29.91S HX  90
AUDUBON *      MOSUNNY   88  66  48 S9        29.93F HX  90
CLARINDA *     SUNNY     91  63  38 S13G24    29.93F HX  92
COUNCIL BLFS * SUNNY     90  64  43 S20       29.88F HX  91
CRESTON *      MOSUNNY   88  61  40 S14       29.96S HX  88
HARLAN  *      MOSUNNY   90  64  43 S16G25    29.93F HX  91
LAMONI         SUNNY     89  64  43 S12G17    29.95F HX  90
RED OAK *      MOSUNNY   91  63  38 S15G22    29.91S HX  92
SHENANDOAH *   SUNNY     91  63  38 S15G22    29.90F HX  92
$$

IAZ047>049-059>061-072>074-084-232300-
   CENTRAL IOWA

CITY           SKY/WX    TMP DP  RH WIND       PRES   REMARKS
AMES           MOSUNNY   89  65  44 S15       29.94F HX  91
ANKENY *       SUNNY     90  64  43 SE14      29.95F HX  91
BOONE *        MOSUNNY   91  63  38 S12G21    29.94S HX  92
CHARITON *     SUNNY     88  64  45 SE10G20   29.96F HX  89
DES MOINES     MOSUNNY   90  62  39 SE13      29.93F HX  90
GRINNELL*      SUNNY     90  61  38 S9G20     29.98F HX  90
KNOXVILLE *    SUNNY     90  64  43 S9G17     29.95F HX  91
MARSHALLTOWN   SUNNY     89  64  43 S9        29.96S HX  90
NEWTON *       SUNNY     91  63  38 S13       29.96F HX  92
PELLA *        SUNNY     92  60  33 SE9       29.97F HX  91
PERRY *          N/A     91  56  31 SE14G24   29.93F HX  89
$$

IAZ004>006-015-016-023>025-035-036-232300-
   NORTH CENTRAL IOWA

CITY           SKY/WX    TMP DP  RH WIND       PRES   REMARKS
ALGONA *       MOSUNNY   88  63  42 S14G23    29.93S HX  88
CLARION *      SUNNY     91  63  38 S15G23    29.94S HX  92
ESTHERVILLE    MOSUNNY   85  66  53 S13G22    29.91F HX  87
FORT DODGE *   MOSUNNY   89  64  43 S13G24    29.93F HX  90
MASON CITY     SUNNY     87  61  41 S16G26    29.97S HX  87
FOREST CITY *    N/A     88  63  42 S12       29.95F HX  88
WEBSTER CITY * SUNNY     91  63  38 SE15G25   29.91F HX  92
IOWA FALLS *     N/A     90  62  38 S12       29.97F HX  90
$$

IAZ007>011-017>019-026>030-037>042-050>054-066-232300-
   NORTHEAST IOWA

CITY           SKY/WX    TMP DP  RH WIND       PRES   REMARKS
CEDAR RAPIDS   MOSUNNY   92  60  34 S12       29.98F HX  91
CHARLES CITY * MOSUNNY   90  61  37 S13       29.97F HX  89
CLINTON *      MOSUNNY  N/A N/A N/A S7        30.01F
DECORAH *      MOSUNNY   90  63  40 VRB5G15   29.98S HX  90
DUBUQUE        SUNNY     88  64  44 S9        30.02F HX  89
MONTICELLO *   MOSUNNY   93  61  33 S8        29.99S HX  93
OELWEIN *      MOSUNNY   91  63  38 S13       29.99S HX  92
WATERLOO       SUNNY     89  61  38 S12       29.95F HX  89
$$

IAZ064-065-067-068-078-232300-
   EAST CENTRAL IOWA

CITY           SKY/WX    TMP DP  RH WIND       PRES   REMARKS
DAVENPORT      SUNNY     90  63  40 S8        30.02S HX  91
IOWA CITY      MOSUNNY   94  60  32 S10       29.98F HX  94
MT. PLEASANT * SUNNY     88  61  40 SE8       29.98S HX  87
MUSCATINE *    SUNNY     93  61  33 SE7G14    29.98S HX  93
QUAD CITIES    SUNNY     91  63  39 S6        29.99S HX  92
$$

IAZ062-063-075>077-085>089-095>099-232300-
   SOUTHEAST IOWA

CITY           SKY/WX    TMP DP  RH WIND       PRES   REMARKS
BURLINGTON     SUNNY     92  63  38 S8        29.98F HX  93
FAIRFIELD *    MOSUNNY   91  61  35 S8G14     29.97F HX  91
FORT MADISON * SUNNY     93  61  33 SE7       29.99F HX  93
KEOKUK *       SUNNY     93  61  33 E10G17    29.97F HX  93
OSKALOOSA *      N/A     91  61  36 S8        29.97F HX  91
OTTUMWA        SUNNY     91  63  39 S13       29.97F HX  92
WASHINGTON *   MOSUNNY   93  63  36 SE8G17    29.99S HX  94
$$

ABBREVIATIONS USED IN REMARKS
   TC - TEMPERATURES IN CELSIUS
  WCI - WIND CHILL INDEX
   HX - HEAT INDEX
  VSB - VISIBILITY
$$





USA.gov is the U.S. government's official web portal to all federal, state and local government web resources and services.